Regional Weather Roundup
Issued by NWS

Home | Current Version | Previous Version | Text Only | Print | Product List | Glossary Off
Versions: 1 2 3 4 5 6 7 8 9 10 11 12 13 14 15 16 17 18 19 20 21 22 23 24 25 26 27 28 29 30 31 32 33 34 35 36 37 38 39 40 41 42 43 44 45 46 47 48 49 50

170
ASUS43 KOAX 170010
RWRNE

WEATHER ROUNDUP FOR NEBRASKA
NATIONAL WEATHER SERVICE OMAHA NE
700 PM CDT MON OCT 16 2017

NOTES: SATELLITE DATA IS BEING USED TO AUGMENT CLOUD COVER ABOVE
       12000 FEET.
       "FAIR" INDICATES FEW OR NO CLOUDS BELOW 12,000 FEET WITH NO
       SIGNIFICANT WEATHER AND/OR OBSTRUCTIONS TO VISIBILITY.


NEZ001>004-019>022-054>056-170100-
NEBRASKA PANHANDLE

CITY           SKY/WX    TMP DP  RH WIND       PRES   REMARKS
SCOTTSBLUFF    CLEAR     64  22  20 N9        30.14R
6HR MIN TEMP:  64; 6HR MAX TEMP:  78;

ALLIANCE       CLOUDY    63  27  25 N8        30.12R
6HR MIN TEMP:  63; 6HR MAX TEMP:  75;

CHADRON        CLEAR     62  26  25 CALM      30.10R
6HR MIN TEMP:  62; 6HR MAX TEMP:  74;

GORDON         FAIR      62  32  31 NW6       30.10R
6HR MIN TEMP:  62; 6HR MAX TEMP:  75;

KIMBALL        CLOUDY    66  19  16 N6        30.18R
SIDNEY         CLOUDY    64  23  21 N5        30.16R
6HR MIN TEMP:  64; 6HR MAX TEMP:  79; 6HR PCP: TRACE;

$$

NEZ057>060-069>072-079>082-170100-
SOUTHWEST NEBRASKA

CITY           SKY/WX    TMP DP  RH WIND       PRES   REMARKS
NORTH PLATTE   CLEAR     59  41  51 CALM      30.06R
6HR MIN TEMP:  59; 6HR MAX TEMP:  79;

IMPERIAL       CLOUDY    71  18  13 W5        30.09S
6HR MIN TEMP:  70; 6HR MAX TEMP:  83;

LEXINGTON      CLEAR     69  35  28 S13       30.06R
MCCOOK         CLOUDY    66  38  35 SW7       30.07F
6HR MIN TEMP:  66; 6HR MAX TEMP:  81; 6HR PCP: TRACE;

OGALLALA       CLOUDY    67  30  25 N7        30.09S
$$

NEZ005>010-023>029-035>040-094-170100-
NORTH CENTRAL NEBRASKA

CITY           SKY/WX    TMP DP  RH WIND       PRES   REMARKS
VALENTINE      CLEAR     67  32  27 N6        30.05R
6HR MIN TEMP:  67; 6HR MAX TEMP:  80;

AINSWORTH      CLEAR     66  38  34 CALM      30.04S
BROKEN BOW     CLEAR     66  45  46 S3        30.04F
6HR MIN TEMP:  66; 6HR MAX TEMP:  76;

O`NEILL        CLEAR     64  41  42 S7        30.03S
ORD            CLEAR     63  37  38 S7        30.03F HAZE
6HR MIN TEMP:  63; 6HR MAX TEMP:  75;

THEDFORD       CLOUDY    67  30  25 CALM      30.07R
$$

NEZ041-046>049-061>064-073>077-083>087-170100-
SOUTH CENTRAL NEBRASKA

CITY           SKY/WX    TMP DP  RH WIND       PRES   REMARKS
GRAND ISLAND   CLEAR     64  39  39 S7        30.09S
6HR MIN TEMP:  64; 6HR MAX TEMP:  75;

AURORA         CLEAR     66  36  32 S8        30.10R
HASTINGS       CLEAR     67  34  29 S8        30.10S
6HR MIN TEMP:  67; 6HR MAX TEMP:  74;

HEBRON         CLEAR     65  38  37 S6        30.13F
HOLDREGE       CLEAR     68  37  31 S13       30.08S
KEARNEY        CLOUDY    65  37  35 S12       30.08S
YORK           CLEAR     66  37  34 S10       30.10S
$$

NEZ011>018-030>034-042>045-170100-
NORTHEAST NEBRASKA

CITY           SKY/WX    TMP DP  RH WIND       PRES   REMARKS
NORFOLK        CLEAR     64  38  38 S8        30.05S
6HR MIN TEMP:  64; 6HR MAX TEMP:  76;

ALBION         CLEAR     65  38  36 S6        30.06S
BLAIR          CLEAR     66  40  38 S12       30.10S
COLUMBUS       CLEAR     67  38  34 S10       30.09R
FREMONT        CLEAR     68  37  32 S10       30.10S
TEKAMAH        CLEAR     62  38  40 SE8       30.08S
6HR MIN TEMP:  62; 6HR MAX TEMP:  75;

WAYNE          CLEAR     63  34  33 S9        30.05R
$$

NEZ050>053-065>068-078-088>093-170100-
SOUTHEAST NEBRASKA

CITY           SKY/WX    TMP DP  RH WIND       PRES   REMARKS
LINCOLN        CLEAR     62  39  42 S12       30.13R
6HR MIN TEMP:  62; 6HR MAX TEMP:  75;

OMAHA EPPLEY   PTCLDY    68  39  34 S13       30.11S
6HR MIN TEMP:  68; 6HR MAX TEMP:  74;

BEATRICE       CLEAR     65  41  40 S10       30.15S
FALLS CITY     CLEAR     65  38  36 S8        30.17F
6HR MIN TEMP:  65; 6HR MAX TEMP:  71;

NEBRASKA CITY  CLEAR     61  41  46 S8        30.15F
PLATTSMOUTH    CLEAR     65  39  38 S9        30.14S
$$

NEZ044-045-051>053-067-170100-
OMAHA AREA

CITY           SKY/WX    TMP DP  RH WIND       PRES   REMARKS
OMAHA EPPLEY   PTCLDY    68  39  34 S13       30.11S
6HR MIN TEMP:  68; 6HR MAX TEMP:  74;

BLAIR          CLEAR     66  40  38 S12       30.10S
FREMONT        CLEAR     68  37  32 S10       30.10S
MILLARD        CLOUDY    68  42  38 S8        30.12S
OFFUTT AFB     CLEAR     63  40  43 S8        30.12S
PLATTSMOUTH    CLEAR     65  39  38 S9        30.14S
WAHOO          FAIR      63  40  42 S9        30.10S
$$




USA.gov is the U.S. government's official web portal to all federal, state and local government web resources and services.